| time (UTC) | temp C | wind direction | speed KPH | gust KPH | rain 1hr cm | rain 24hr cm | rain mn cm | humidity % | barometer mb |
| 20260510013801 | 8 | 272 | 0.0 | 3.2 | 0.00 | 0.00 | 0.00 | 86 | 1021.0 |
| 20260510013234 | 8 | 253 | 0.0 | 3.2 | 0.00 | 0.00 | 0.00 | 84 | 1021.0 |
| 20260510012733 | 8 | 231 | 0.0 | 3.2 | 0.00 | 0.00 | 0.00 | 84 | 1020.9 |
| 20260510012226 | 8 | 297 | 0.0 | 1.6 | 0.00 | 0.00 | 0.00 | 83 | 1021.0 |
| 20260510011658 | 8 | 288 | 0.0 | 0.0 | 0.00 | 0.00 | 0.00 | 82 | 1020.8 |
| 20260510011154 | 9 | 274 | 0.0 | 0.0 | 0.00 | 0.00 | 0.00 | 81 | 1020.8 |
| 20260510010921 | 9 | 274 | 0.0 | 0.0 | 0.00 | 0.00 | 0.00 | 80 | 1020.7 |
| 20260510010144 | 9 | 274 | 0.0 | 1.6 | 0.00 | 0.00 | 0.00 | 80 | 1020.5 |
| 20260510005641 | 10 | 274 | 0.0 | 3.2 | 0.00 | 0.00 | 0.00 | 80 | 1020.6 |
| 20260510005114 | 10 | 274 | 0.0 | 3.2 | 0.00 | 0.00 | 0.00 | 79 | 1020.7 |
| 20260510004547 | 10 | 237 | 0.0 | 0.0 | 0.00 | 0.00 | 0.00 | 78 | 1020.6 |
| 20260510004043 | 10 | 237 | 0.0 | 0.0 | 0.00 | 0.00 | 0.00 | 77 | 1020.7 |
| 20260510003535 | 10 | 237 | 0.0 | 0.0 | 0.00 | 0.00 | 0.00 | 76 | 1020.6 |
| 20260510003032 | 11 | 237 | 0.0 | 0.0 | 0.00 | 0.00 | 0.00 | 76 | 1020.7 |
| 20260510002529 | 11 | 272 | 1.6 | 4.8 | 0.00 | 0.00 | 0.00 | 76 | 1020.7 |
| 20260510002003 | 11 | 272 | 3.2 | 11.3 | 0.00 | 0.00 | 0.00 | 76 | 1020.7 |
| 20260510001455 | 11 | 229 | 3.2 | 14.5 | 0.00 | 0.00 | 0.00 | 76 | 1020.6 |
| 20260510000952 | 11 | 301 | 3.2 | 14.5 | 0.00 | 0.00 | 0.00 | 76 | 1020.4 |
| 20260510000427 | 11 | 276 | 3.2 | 12.9 | 0.00 | 0.00 | 0.00 | 76 | 1020.4 |
| 20260509235910 | 11 | 302 | 1.6 | 12.9 | 0.00 | 0.00 | 0.00 | 76 | 1020.2 |
| 20260509235847 | 11 | 317 | 4.8 | 16.1 | 0.00 | 0.00 | 0.00 | 75 | 1020.1 |
| 20260509234840 | 11 | 271 | 4.8 | 16.1 | 0.00 | 0.00 | 0.00 | 75 | 1020.0 |
| 20260509234327 | 11 | 278 | 3.2 | 12.9 | 0.00 | 0.00 | 0.00 | 74 | 1019.9 |
| 20260509233822 | 11 | 229 | 4.8 | 9.7 | 0.00 | 0.00 | 0.00 | 74 | 1019.7 |
| 20260509233254 | 11 | 295 | 4.8 | 11.3 | 0.00 | 0.00 | 0.00 | 74 | 1019.8 |
| 20260509232746 | 11 | 247 | 6.4 | 14.5 | 0.00 | 0.00 | 0.00 | 74 | 1019.8 |
| 20260509232242 | 11 | 265 | 4.8 | 14.5 | 0.00 | 0.00 | 0.00 | 75 | 1019.8 |
| 20260509231715 | 11 | 294 | 3.2 | 12.9 | 0.00 | 0.00 | 0.00 | 75 | 1019.7 |
| 20260509231149 | 10 | 262 | 0.0 | 4.8 | 0.00 | 0.00 | 0.00 | 76 | 1019.3 |
| 20260509230646 | 10 | 242 | 0.0 | 3.2 | 0.00 | 0.00 | 0.00 | 77 | 1019.2 |
| 20260509230145 | 11 | 273 | 0.0 | 3.2 | 0.00 | 0.00 | 0.00 | 77 | 1019.1 |
| 20260509225632 | 11 | 240 | 0.0 | 3.2 | 0.00 | 0.00 | 0.00 | 76 | 1019.0 |
| 20260509225133 | 11 | 253 | 0.0 | 3.2 | 0.00 | 0.00 | 0.00 | 75 | 1018.9 |
| 20260509224837 | 11 | 264 | 0.0 | 3.2 | 0.00 | 0.00 | 0.00 | 74 | 1018.6 |
| 20260509224100 | 11 | 261 | 0.0 | 4.8 | 0.00 | 0.00 | 0.00 | 72 | 1018.5 |
| 20260509223554 | 12 | 298 | 1.6 | 4.8 | 0.00 | 0.00 | 0.00 | 72 | 1018.4 |
| 20260509223258 | 12 | 292 | 1.6 | 4.8 | 0.00 | 0.00 | 0.00 | 71 | 1018.3 |
| 20260509222523 | 12 | 257 | 1.6 | 4.8 | 0.00 | 0.00 | 0.00 | 72 | 1018.4 |
| 20260509222021 | 12 | 3 | 3.2 | 6.4 | 0.00 | 0.00 | 0.00 | 71 | 1018.2 |
| 20260509221510 | 12 | 297 | 3.2 | 11.3 | 0.00 | 0.00 | 0.00 | 69 | 1018.2 |
| 20260509221008 | 13 | 292 | 1.6 | 11.3 | 0.00 | 0.00 | 0.00 | 69 | 1018.2 |
| 20260509220456 | 13 | 301 | 1.6 | 9.7 | 0.00 | 0.00 | 0.00 | 69 | 1018.1 |
| 20260509220226 | 13 | 278 | 3.2 | 9.7 | 0.00 | 0.00 | 0.00 | 69 | 1018.0 |
| 20260509215428 | 13 | 278 | 6.4 | 14.5 | 0.00 | 0.00 | 0.00 | 70 | 1018.0 |
| 20260509214925 | 13 | 276 | 4.8 | 12.9 | 0.00 | 0.00 | 0.00 | 72 | 1017.8 |
| 20260509214416 | 13 | 214 | 4.8 | 14.5 | 0.00 | 0.00 | 0.00 | 73 | 1017.7 |
| 20260509214144 | 13 | 207 | 1.6 | 14.5 | 0.00 | 0.00 | 0.00 | 71 | 1017.6 |
| 20260509213633 | 13 | 330 | 0.0 | 8.0 | 0.00 | 0.00 | 0.00 | 70 | 1016.9 |
| 20260509212903 | 13 | 333 | 1.6 | 8.0 | 0.00 | 0.00 | 0.00 | 69 | 1016.8 |
| 20260509212354 | 13 | 314 | 1.6 | 8.0 | 0.00 | 0.00 | 0.00 | 68 | 1016.7 |
| 20260509211855 | 13 | 356 | 1.6 | 8.0 | 0.00 | 0.00 | 0.00 | 68 | 1016.6 |
| 20260509211353 | 13 | 322 | 3.2 | 14.5 | 0.00 | 0.00 | 0.00 | 68 | 1016.6 |
| 20260509210849 | 13 | 327 | 4.8 | 14.5 | 0.00 | 0.00 | 0.00 | 68 | 1016.4 |
| 20260509210358 | 14 | 332 | 3.2 | 14.5 | 0.00 | 0.00 | 0.00 | 66 | 1016.5 |
| 20260509210350 | 13 | 328 | 4.8 | 14.5 | 0.00 | 0.00 | 0.00 | 67 | 1016.6 |
| 20260509205620 | 14 | 301 | 1.6 | 9.7 | 0.00 | 0.00 | 0.00 | 66 | 1016.1 |
| 20260509204850 | 14 | 316 | 1.6 | 9.7 | 0.00 | 0.00 | 0.00 | 66 | 1016.1 |
| 20260509204553 | 14 | 288 | 1.6 | 9.7 | 0.00 | 0.00 | 0.00 | 65 | 1016.1 |
| 20260509203811 | 15 | 342 | 3.2 | 9.7 | 0.00 | 0.00 | 0.00 | 65 | 1016.1 |
| 20260509203548 | 15 | 2 | 4.8 | 11.3 | 0.00 | 0.00 | 0.00 | 65 | 1016.2 |
| 20260509202744 | 15 | 1 | 4.8 | 11.3 | 0.00 | 0.00 | 0.00 | 64 | 1016.0 |
| 20260509202241 | 15 | 351 | 3.2 | 11.3 | 0.00 | 0.00 | 0.00 | 63 | 1016.1 |
| 20260509201734 | 15 | 357 | 1.6 | 9.7 | 0.00 | 0.00 | 0.00 | 64 | 1016.1 |
| 20260509201206 | 15 | 338 | 1.6 | 8.0 | 0.00 | 0.00 | 0.00 | 63 | 1016.1 |
| 20260509200704 | 16 | 359 | 1.6 | 8.0 | 0.00 | 0.00 | 0.00 | 62 | 1016.1 |
| 20260509200152 | 16 | 340 | 1.6 | 8.0 | 0.00 | 0.00 | 0.00 | 61 | 1016.1 |
| 20260509195649 | 16 | 348 | 1.6 | 11.3 | 0.00 | 0.00 | 0.00 | 61 | 1016.1 |
| 20260509195124 | 16 | 328 | 4.8 | 12.9 | 0.00 | 0.00 | 0.00 | 61 | 1016.0 |
| 20260509194614 | 16 | 16 | 4.8 | 12.9 | 0.00 | 0.00 | 0.00 | 61 | 1016.1 |
| 20260509194048 | 16 | 22 | 4.8 | 14.5 | 0.00 | 0.00 | 0.00 | 60 | 1016.1 |
| 20260509193520 | 16 | 336 | 4.8 | 14.5 | 0.00 | 0.00 | 0.00 | 61 | 1016.2 |
| 20260509192952 | 16 | 0 | 4.8 | 11.3 | 0.00 | 0.00 | 0.00 | 61 | 1016.1 |
| 20260509192715 | 16 | 320 | 4.8 | 14.5 | 0.00 | 0.00 | 0.00 | 62 | 1016.1 |
| 20260509191941 | 16 | 357 | 3.2 | 14.5 | 0.00 | 0.00 | 0.00 | 60 | 1016.0 |
| 20260509191428 | 16 | 352 | 3.2 | 12.9 | 0.00 | 0.00 | 0.00 | 60 | 1016.1 |
| 20260509190928 | 16 | 321 | 3.2 | 12.9 | 0.00 | 0.00 | 0.00 | 59 | 1015.9 |
| 20260509190430 | 16 | 319 | 4.8 | 12.9 | 0.00 | 0.00 | 0.00 | 58 | 1016.0 |
| 20260509185905 | 16 | 14 | 4.8 | 12.9 | 0.00 | 0.00 | 0.00 | 58 | 1016.0 |
| 20260509185334 | 16 | 325 | 4.8 | 12.9 | 0.00 | 0.00 | 0.00 | 58 | 1016.0 |
| 20260509185101 | 16 | 328 | 6.4 | 16.1 | 0.00 | 0.00 | 0.00 | 58 | 1016.1 |
| 20260509184330 | 16 | 4 | 8.0 | 16.1 | 0.00 | 0.00 | 0.00 | 58 | 1016.1 |
| 20260509183802 | 16 | 317 | 8.0 | 16.1 | 0.00 | 0.00 | 0.00 | 57 | 1016.4 |
| 20260509183236 | 16 | 339 | 6.4 | 16.1 | 0.00 | 0.00 | 0.00 | 57 | 1016.1 |
| 20260509182710 | 16 | 331 | 6.4 | 16.1 | 0.00 | 0.00 | 0.00 | 57 | 1016.0 |
| 20260509182144 | 16 | 280 | 4.8 | 16.1 | 0.00 | 0.00 | 0.00 | 58 | 1015.9 |
| 20260509181641 | 16 | 322 | 4.8 | 20.9 | 0.00 | 0.00 | 0.00 | 57 | 1015.9 |
| 20260509181115 | 16 | 351 | 8.0 | 20.9 | 0.00 | 0.00 | 0.00 | 58 | 1015.7 |
| 20260509180550 | 16 | 28 | 11.3 | 24.1 | 0.00 | 0.00 | 0.00 | 58 | 1016.1 |
| 20260509180046 | 16 | 20 | 9.7 | 24.1 | 0.00 | 0.00 | 0.00 | 57 | 1016.0 |
| 20260509175815 | 16 | 326 | 9.7 | 17.7 | 0.00 | 0.00 | 0.00 | 56 | 1015.9 |
| 20260509175041 | 16 | 344 | 9.7 | 24.1 | 0.00 | 0.00 | 0.00 | 58 | 1015.8 |
| 20260509174540 | 16 | 323 | 9.7 | 24.1 | 0.00 | 0.00 | 0.00 | 57 | 1015.9 |
| 20260509174039 | 16 | 351 | 8.0 | 17.7 | 0.00 | 0.00 | 0.00 | 57 | 1015.9 |
| 20260509173747 | 16 | 348 | 6.4 | 16.1 | 0.00 | 0.00 | 0.00 | 58 | 1015.9 |
| 20260509172948 | 16 | 319 | 9.7 | 17.7 | 0.00 | 0.00 | 0.00 | 58 | 1016.1 |
| 20260509172422 | 16 | 36 | 9.7 | 22.5 | 0.00 | 0.00 | 0.00 | 57 | 1016.0 |
| 20260509171857 | 16 | 25 | 8.0 | 22.5 | 0.00 | 0.00 | 0.00 | 57 | 1015.9 |
| 20260509171329 | 16 | 31 | 6.4 | 17.7 | 0.00 | 0.00 | 0.00 | 59 | 1015.9 |
| 20260509170804 | 16 | 303 | 4.8 | 17.7 | 0.00 | 0.00 | 0.00 | 57 | 1016.2 |
| 20260509170508 | 16 | 0 | 3.2 | 12.9 | 0.00 | 0.00 | 0.00 | 61 | 1016.2 |
| 20260509165733 | 16 | 336 | 4.8 | 16.1 | 0.00 | 0.00 | 0.00 | 58 | 1016.2 |
| 20260509165225 | 16 | 333 | 4.8 | 16.1 | 0.00 | 0.00 | 0.00 | 59 | 1016.1 |
| 20260509164721 | 16 | 337 | 6.4 | 14.5 | 0.00 | 0.00 | 0.00 | 59 | 1016.3 |
| 20260509164154 | 16 | 3 | 6.4 | 14.5 | 0.00 | 0.00 | 0.00 | 59 | 1016.2 |
| 20260509163649 | 16 | 8 | 6.4 | 17.7 | 0.00 | 0.00 | 0.00 | 59 | 1016.4 |
| 20260509163150 | 16 | 332 | 6.4 | 17.7 | 0.00 | 0.00 | 0.00 | 59 | 1016.2 |
| 20260509162634 | 15 | 350 | 4.8 | 14.5 | 0.00 | 0.00 | 0.00 | 59 | 1016.4 |
| 20260509162054 | 15 | 332 | 4.8 | 14.5 | 0.00 | 0.00 | 0.00 | 60 | 1016.3 |
| 20260509161524 | 15 | 23 | 6.4 | 16.1 | 0.00 | 0.00 | 0.00 | 58 | 1016.3 |
| 20260509161021 | 15 | 355 | 6.4 | 16.1 | 0.00 | 0.00 | 0.00 | 58 | 1016.3 |
| 20260509160518 | 15 | 8 | 6.4 | 19.3 | 0.00 | 0.00 | 0.00 | 59 | 1016.5 |
| 20260509160012 | 15 | 333 | 6.4 | 19.3 | 0.00 | 0.00 | 0.00 | 59 | 1016.5 |
| 20260509155744 | 15 | 329 | 4.8 | 12.9 | 0.00 | 0.00 | 0.00 | 59 | 1016.6 |
| 20260509154952 | 15 | 0 | 6.4 | 12.9 | 0.00 | 0.00 | 0.00 | 58 | 1016.5 |
| 20260509154438 | 15 | 23 | 6.4 | 20.9 | 0.00 | 0.00 | 0.00 | 57 | 1016.6 |
| 20260509153925 | 15 | 327 | 8.0 | 20.9 | 0.00 | 0.00 | 0.00 | 57 | 1016.7 |
| 20260509153425 | 15 | 308 | 8.0 | 14.5 | 0.00 | 0.00 | 0.00 | 56 | 1016.8 |
| 20260509152924 | 15 | 328 | 6.4 | 14.5 | 0.00 | 0.00 | 0.00 | 55 | 1016.7 |
| 20260509152627 | 15 | 357 | 8.0 | 16.1 | 0.00 | 0.00 | 0.00 | 57 | 1016.9 |
| 20260509152347 | 16 | 347 | 8.0 | 16.1 | 0.00 | 0.00 | 0.00 | 56 | 1016.9 |
| 20260509151345 | 16 | 324 | 4.8 | 16.1 | 0.00 | 0.00 | 0.00 | 54 | 1017.0 |
| 20260509150845 | 16 | 330 | 6.4 | 16.1 | 0.00 | 0.00 | 0.00 | 55 | 1016.9 |
| 20260509150325 | 16 | 358 | 8.0 | 16.1 | 0.00 | 0.00 | 0.00 | 57 | 1016.9 |
| 20260509145824 | 16 | 0 | 6.4 | 16.1 | 0.00 | 0.00 | 0.00 | 55 | 1017.0 |
| 20260509145554 | 16 | 5 | 8.0 | 17.7 | 0.00 | 0.00 | 0.00 | 56 | 1017.0 |
| 20260509145053 | 16 | 34 | 8.0 | 17.7 | 0.00 | 0.00 | 0.00 | 54 | 1017.1 |
| 20260509144318 | 16 | 4 | 6.4 | 16.1 | 0.00 | 0.00 | 0.00 | 56 | 1017.2 |
| 20260509143750 | 16 | 305 | 4.8 | 12.9 | 0.00 | 0.00 | 0.00 | 58 | 1017.4 |
| 20260509143247 | 15 | 13 | 6.4 | 16.1 | 0.00 | 0.00 | 0.00 | 60 | 1017.6 |
| 20260509142720 | 15 | 354 | 8.0 | 16.1 | 0.00 | 0.00 | 0.00 | 58 | 1017.7 |
| 20260509142207 | 15 | 24 | 6.4 | 16.1 | 0.00 | 0.00 | 0.00 | 59 | 1017.8 |
| 20260509141704 | 15 | 330 | 6.4 | 17.7 | 0.00 | 0.00 | 0.00 | 62 | 1017.8 |
| 20260509141139 | 15 | 355 | 6.4 | 17.7 | 0.00 | 0.00 | 0.00 | 61 | 1017.9 |
| 20260509140627 | 15 | 27 | 8.0 | 16.1 | 0.00 | 0.00 | 0.00 | 64 | 1017.9 |
| 20260509140330 | 14 | 345 | 9.7 | 19.3 | 0.00 | 0.00 | 0.00 | 62 | 1017.7 |
| 20260509135531 | 14 | 18 | 9.7 | 19.3 | 0.00 | 0.00 | 0.00 | 62 | 1017.8 |
| 20260509135030 | 15 | 349 | 6.4 | 17.7 | 0.00 | 0.00 | 0.00 | 63 | 1017.6 |
| 20260509134503 | 14 | 343 | 6.4 | 17.7 | 0.00 | 0.00 | 0.00 | 64 | 1017.6 |
| 20260509134003 | 14 | 341 | 6.4 | 17.7 | 0.00 | 0.00 | 0.00 | 63 | 1017.9 |
| 20260509133734 | 14 | 88 | 6.4 | 14.5 | 0.00 | 0.00 | 0.00 | 64 | 1017.8 |
| 20260509133005 | 14 | 18 | 6.4 | 11.3 | 0.00 | 0.00 | 0.00 | 68 | 1017.5 |
| 20260509132438 | 14 | 27 | 6.4 | 12.9 | 0.00 | 0.00 | 0.00 | 65 | 1017.8 |
| 20260509131933 | 14 | 45 | 6.4 | 17.7 | 0.00 | 0.00 | 0.00 | 66 | 1017.8 |
| 20260509131421 | 14 | 353 | 6.4 | 17.7 | 0.00 | 0.00 | 0.00 | 65 | 1017.9 |
| 20260509130856 | 14 | 351 | 4.8 | 14.5 | 0.00 | 0.00 | 0.00 | 67 | 1018.1 |
| 20260509130339 | 13 | 341 | 4.8 | 12.9 | 0.00 | 0.00 | 0.00 | 68 | 1017.9 |
| 20260509125840 | 13 | 308 | 8.0 | 14.5 | 0.00 | 0.00 | 0.00 | 68 | 1017.9 |
| 20260509125340 | 13 | 279 | 6.4 | 14.5 | 0.00 | 0.00 | 0.00 | 67 | 1018.1 |
| 20260509124837 | 13 | 288 | 6.4 | 14.5 | 0.00 | 0.00 | 0.00 | 71 | 1018.1 |
| 20260509124606 | 13 | 328 | 4.8 | 14.5 | 0.00 | 0.00 | 0.00 | 71 | 1017.8 |
| 20260509124059 | 13 | 332 | 1.6 | 12.9 | 0.00 | 0.00 | 0.00 | 74 | 1017.8 |
| 20260509123324 | 12 | 93 | 0.0 | 3.2 | 0.00 | 0.00 | 0.00 | 84 | 1017.6 |
| 20260509122758 | 12 | 128 | 0.0 | 3.2 | 0.00 | 0.00 | 0.00 | 87 | 1017.4 |
| 20260509122252 | 11 | 89 | 1.6 | 4.8 | 0.00 | 0.00 | 0.00 | 89 | 1017.5 |
| 20260509122226 | 11 | 77 | 1.6 | 6.4 | 0.00 | 0.00 | 0.00 | 91 | 1017.4 |
| 20260509121224 | 11 | 107 | 1.6 | 6.4 | 0.00 | 0.00 | 0.00 | 93 | 1017.4 |
| 20260509120652 | 10 | 145 | 1.6 | 6.4 | 0.00 | 0.00 | 0.00 | 97 | 1017.3 |
| 20260509120127 | 10 | 110 | 1.6 | 6.4 | 0.00 | 0.00 | 0.00 | 97 | 1017.4 |
| 20260509115559 | 9 | 143 | 0.0 | 3.2 | 0.00 | 0.00 | 0.00 | 97 | 1017.4 |
| 20260509115055 | 9 | 298 | 0.0 | 1.6 | 0.00 | 0.00 | 0.00 | 97 | 1017.4 |
| 20260509114824 | 9 | 298 | 0.0 | 1.6 | 0.00 | 0.00 | 0.00 | 98 | 1017.4 |
| 20260509113531 | 8 | 104 | 0.0 | 1.6 | 0.00 | 0.00 | 0.00 | 98 | 1017.1 |
| 20260509113039 | 8 | 113 | 0.0 | 1.6 | 0.00 | 0.00 | 0.00 | 98 | 1017.0 |
| 20260509113031 | 8 | 113 | 0.0 | 1.6 | 0.00 | 0.00 | 0.00 | 98 | 1017.1 |
| 20260509112002 | 7 | 118 | 0.0 | 0.0 | 0.00 | 0.00 | 0.00 | 98 | 1017.2 |
| 20260509111455 | 7 | 118 | 0.0 | 0.0 | 0.00 | 0.00 | 0.00 | 97 | 1017.2 |
| 20260509110927 | 7 | 118 | 0.0 | 0.0 | 0.00 | 0.00 | 0.00 | 97 | 1017.3 |
| 20260509110424 | 6 | 118 | 0.0 | 0.0 | 0.00 | 0.00 | 0.00 | 97 | 1017.3 |
| 20260509105917 | 6 | 118 | 0.0 | 0.0 | 0.00 | 0.00 | 0.00 | 97 | 1017.2 |
| 20260509105644 | 6 | 118 | 0.0 | 0.0 | 0.00 | 0.00 | 0.00 | 97 | 1017.0 |
| 20260509104846 | 5 | 118 | 0.0 | 0.0 | 0.00 | 0.00 | 0.00 | 97 | 1016.8 |
| 20260509104344 | 5 | 118 | 0.0 | 0.0 | 0.00 | 0.00 | 0.00 | 96 | 1016.7 |
| 20260509103835 | 5 | 118 | 0.0 | 0.0 | 0.00 | 0.00 | 0.00 | 96 | 1016.8 |
| 20260509103333 | 5 | 160 | 0.0 | 0.0 | 0.00 | 0.00 | 0.00 | 96 | 1016.8 |
| 20260509102806 | 5 | 160 | 0.0 | 0.0 | 0.00 | 0.00 | 0.00 | 96 | 1016.6 |
| 20260509102259 | 4 | 160 | 0.0 | 0.0 | 0.00 | 0.00 | 0.00 | 95 | 1016.6 |
| 20260509101759 | 4 | 160 | 0.0 | 0.0 | 0.00 | 0.00 | 0.00 | 95 | 1016.4 |
| 20260509101259 | 4 | 160 | 0.0 | 0.0 | 0.00 | 0.00 | 0.00 | 95 | 1016.4 |
| 20260509100744 | 4 | 160 | 0.0 | 0.0 | 0.00 | 0.00 | 0.00 | 95 | 1016.5 |
| 20260509100223 | 4 | 160 | 0.0 | 0.0 | 0.00 | 0.00 | 0.00 | 95 | 1016.4 |
| 20260509095723 | 4 | 160 | 0.0 | 0.0 | 0.00 | 0.00 | 0.00 | 95 | 1016.3 |
| 20260509095218 | 5 | 160 | 0.0 | 0.0 | 0.00 | 0.00 | 0.00 | 95 | 1016.3 |
| 20260509094939 | 5 | 50 | 0.0 | 0.0 | 0.00 | 0.00 | 0.00 | 95 | 1016.2 |
| 20260509094209 | 5 | 177 | 0.0 | 0.0 | 0.00 | 0.00 | 0.00 | 95 | 1016.1 |
| 20260509093656 | 5 | 177 | 0.0 | 0.0 | 0.00 | 0.00 | 0.00 | 96 | 1016.0 |
| 20260509093154 | 5 | 155 | 0.0 | 0.0 | 0.00 | 0.00 | 0.00 | 96 | 1016.0 |
| 20260509092651 | 5 | 155 | 0.0 | 0.0 | 0.00 | 0.00 | 0.00 | 96 | 1015.9 |
| 20260509092150 | 5 | 249 | 0.0 | 0.0 | 0.00 | 0.00 | 0.00 | 96 | 1015.9 |
| 20260509091648 | 5 | 249 | 0.0 | 0.0 | 0.00 | 0.00 | 0.00 | 95 | 1016.0 |
| 20260509091143 | 5 | 241 | 0.0 | 0.0 | 0.00 | 0.00 | 0.00 | 95 | 1015.8 |
| 20260509090643 | 5 | 241 | 0.0 | 0.0 | 0.00 | 0.00 | 0.00 | 95 | 1015.6 |
| 20260509090113 | 5 | 230 | 0.0 | 0.0 | 0.00 | 0.00 | 0.00 | 95 | 1015.5 |
| 20260509085827 | 5 | 230 | 0.0 | 0.0 | 0.00 | 0.00 | 0.00 | 95 | 1015.3 |
| 20260509085044 | 5 | 230 | 0.0 | 0.0 | 0.00 | 0.00 | 0.00 | 95 | 1015.2 |
| 20260509084516 | 5 | 230 | 0.0 | 0.0 | 0.00 | 0.00 | 0.00 | 95 | 1015.2 |
| 20260509084009 | 5 | 187 | 0.0 | 0.0 | 0.00 | 0.00 | 0.00 | 95 | 1015.1 |
| 20260509083743 | 5 | 187 | 0.0 | 0.0 | 0.00 | 0.00 | 0.00 | 95 | 1015.1 |
| 20260509082943 | 5 | 187 | 0.0 | 0.0 | 0.00 | 0.00 | 0.00 | 95 | 1015.1 |
| 20260509082432 | 5 | 196 | 0.0 | 0.0 | 0.00 | 0.00 | 0.00 | 95 | 1015.1 |
| 20260509081922 | 5 | 266 | 0.0 | 0.0 | 0.00 | 0.00 | 0.00 | 95 | 1015.1 |
| 20260509081415 | 5 | 266 | 0.0 | 0.0 | 0.00 | 0.00 | 0.00 | 95 | 1015.1 |
| 20260509080905 | 5 | 266 | 0.0 | 0.0 | 0.00 | 0.00 | 0.00 | 95 | 1015.1 |
| 20260509080340 | 6 | 266 | 0.0 | 0.0 | 0.00 | 0.00 | 0.00 | 95 | 1015.2 |
| 20260509075840 | 6 | 266 | 0.0 | 0.0 | 0.00 | 0.00 | 0.00 | 95 | 1015.1 |
| 20260509075336 | 5 | 266 | 0.0 | 0.0 | 0.00 | 0.00 | 0.00 | 95 | 1015.1 |
| 20260509074825 | 5 | 266 | 0.0 | 0.0 | 0.00 | 0.00 | 0.00 | 94 | 1015.1 |
| 20260509074311 | 5 | 289 | 0.0 | 0.0 | 0.00 | 0.00 | 0.00 | 94 | 1014.9 |
| 20260509074038 | 6 | 289 | 0.0 | 0.0 | 0.00 | 0.00 | 0.00 | 94 | 1014.9 |
| 20260509073524 | 6 | 289 | 0.0 | 0.0 | 0.00 | 0.00 | 0.00 | 94 | 1014.9 |
| 20260509072739 | 6 | 289 | 0.0 | 0.0 | 0.00 | 0.00 | 0.00 | 94 | 1015.0 |
| 20260509072235 | 6 | 258 | 0.0 | 0.0 | 0.00 | 0.00 | 0.00 | 94 | 1015.1 |
| 20260509071735 | 6 | 258 | 0.0 | 0.0 | 0.00 | 0.00 | 0.00 | 94 | 1015.1 |
| 20260509071237 | 6 | 281 | 0.0 | 0.0 | 0.00 | 0.00 | 0.00 | 93 | 1015.0 |
| 20260509070723 | 6 | 246 | 0.0 | 0.0 | 0.00 | 0.00 | 0.00 | 93 | 1015.1 |
| 20260509070220 | 6 | 246 | 0.0 | 0.0 | 0.00 | 0.00 | 0.00 | 93 | 1015.1 |
| 20260509065938 | 6 | 246 | 0.0 | 0.0 | 0.00 | 0.00 | 0.00 | 93 | 1015.1 |
| 20260509065155 | 6 | 246 | 0.0 | 0.0 | 0.00 | 0.00 | 0.00 | 93 | 1015.1 |
| 20260509064627 | 6 | 246 | 0.0 | 0.0 | 0.00 | 0.00 | 0.00 | 93 | 1015.1 |
| 20260509064124 | 6 | 246 | 0.0 | 0.0 | 0.00 | 0.00 | 0.00 | 93 | 1015.0 |
| 20260509063624 | 6 | 246 | 0.0 | 0.0 | 0.00 | 0.00 | 0.00 | 93 | 1015.0 |
| 20260509063125 | 6 | 246 | 0.0 | 0.0 | 0.00 | 0.00 | 0.00 | 93 | 1014.9 |
| 20260509062626 | 6 | 246 | 0.0 | 0.0 | 0.00 | 0.00 | 0.00 | 93 | 1015.0 |
| 20260509062057 | 6 | 246 | 0.0 | 0.0 | 0.00 | 0.03 | 0.00 | 93 | 1014.9 |
| 20260509061533 | 6 | 246 | 0.0 | 0.0 | 0.00 | 0.05 | 0.00 | 93 | 1014.5 |
| 20260509061027 | 7 | 225 | 0.0 | 0.0 | 0.00 | 0.08 | 0.00 | 93 | 1014.4 |
| 20260509060456 | 7 | 245 | 0.0 | 0.0 | 0.00 | 0.10 | 0.00 | 93 | 1014.2 |
| 20260509055942 | 7 | 245 | 0.0 | 0.0 | 0.00 | 0.15 | 0.00 | 93 | 1014.2 |
| 20260509055418 | 7 | 187 | 0.0 | 0.0 | 0.00 | 0.18 | 0.00 | 93 | 1014.2 |
| 20260509054915 | 7 | 275 | 0.0 | 0.0 | 0.00 | 0.20 | 0.00 | 93 | 1014.2 |
| 20260509054414 | 7 | 275 | 0.0 | 0.0 | 0.00 | 0.25 | 0.00 | 93 | 1014.2 |
| 20260509053903 | 7 | 275 | 0.0 | 0.0 | 0.00 | 0.28 | 0.00 | 92 | 1014.0 |
| 20260509053401 | 7 | 275 | 0.0 | 0.0 | 0.00 | 0.30 | 0.00 | 91 | 1013.9 |
| 20260509052850 | 7 | 217 | 0.0 | 0.0 | 0.00 | 0.41 | 0.00 | 91 | 1013.8 |
| 20260509052349 | 7 | 177 | 0.0 | 0.0 | 0.00 | 0.46 | 0.00 | 91 | 1014.0 |
| 20260509051849 | 7 | 182 | 0.0 | 0.0 | 0.00 | 0.46 | 0.00 | 91 | 1013.9 |
| 20260509051346 | 7 | 182 | 0.0 | 0.0 | 0.00 | 0.46 | 0.00 | 92 | 1013.6 |
| 20260509051107 | 7 | 182 | 0.0 | 0.0 | 0.00 | 0.46 | 0.00 | 91 | 1013.3 |
| 20260509050543 | 7 | 92 | 0.0 | 0.0 | 0.00 | 0.46 | 0.00 | 91 | 1013.2 |
| 20260509045810 | 7 | 92 | 0.0 | 0.0 | 0.00 | 0.46 | 0.00 | 91 | 1013.2 |
| 20260509045323 | 7 | 92 | 0.0 | 0.0 | 0.00 | 0.46 | 0.00 | 90 | 1013.3 |
| 20260509045310 | 7 | 92 | 0.0 | 0.0 | 0.00 | 0.46 | 0.00 | 90 | 1013.4 |
| 20260509044255 | 8 | 92 | 0.0 | 0.0 | 0.00 | 0.46 | 0.00 | 90 | 1013.3 |
| 20260509043744 | 8 | 262 | 0.0 | 0.0 | 0.00 | 0.46 | 0.00 | 89 | 1013.4 |
| 20260509043231 | 8 | 272 | 0.0 | 0.0 | 0.00 | 0.46 | 0.00 | 89 | 1013.6 |
| 20260509042731 | 8 | 248 | 0.0 | 0.0 | 0.00 | 0.46 | 0.00 | 89 | 1013.8 |
| 20260509042230 | 8 | 258 | 0.0 | 0.0 | 0.00 | 0.74 | 0.00 | 89 | 1013.7 |
| 20260509042223 | 8 | 258 | 0.0 | 0.0 | 0.00 | 0.51 | 0.00 | 89 | 1013.6 |
| 20260509041223 | 8 | 253 | 0.0 | 0.0 | 0.00 | 0.74 | 0.00 | 89 | 1013.6 |
| 20260509040716 | 8 | 287 | 0.0 | 0.0 | 0.00 | 0.74 | 0.00 | 89 | 1013.4 |
| 20260509040446 | 8 | 287 | 0.0 | 0.0 | 0.00 | 0.74 | 0.00 | 88 | 1013.3 |
| 20260509040329 | 8 | 287 | 0.0 | 0.0 | 0.00 | 0.74 | 0.00 | 88 | 1013.2 |
| 20260509035946 | 8 | 287 | 0.0 | 0.0 | 0.00 | 0.74 | 0.00 | 88 | 1013.2 |
| 20260509035212 | 8 | 287 | 0.0 | 0.0 | 0.00 | 0.74 | 0.00 | 88 | 1013.1 |
| 20260509034714 | 9 | 77 | 0.0 | 0.0 | 0.00 | 0.74 | 0.00 | 87 | 1012.9 |
| 20260509034210 | 9 | 77 | 0.0 | 0.0 | 0.00 | 0.74 | 0.00 | 86 | 1013.0 |
| 20260509033708 | 9 | 272 | 0.0 | 0.0 | 0.00 | 0.74 | 0.00 | 86 | 1013.1 |
| 20260509033147 | 9 | 272 | 0.0 | 0.0 | 0.00 | 0.74 | 0.00 | 86 | 1013.0 |
| 20260509032645 | 10 | 271 | 0.0 | 0.0 | 0.00 | 0.74 | 0.00 | 85 | 1012.8 |
| 20260509032134 | 10 | 271 | 0.0 | 0.0 | 0.00 | 0.76 | 0.00 | 85 | 1012.8 |
| 20260509031634 | 10 | 271 | 0.0 | 0.0 | 0.00 | 0.76 | 0.00 | 85 | 1012.7 |
| 20260509031120 | 10 | 271 | 0.0 | 0.0 | 0.00 | 0.76 | 0.00 | 85 | 1012.8 |
| 20260509030559 | 10 | 271 | 0.0 | 0.0 | 0.00 | 0.76 | 0.00 | 83 | 1012.7 |
| 20260509030049 | 10 | 271 | 0.0 | 0.0 | 0.00 | 0.76 | 0.00 | 83 | 1012.5 |
| 20260509025758 | 10 | 271 | 0.0 | 0.0 | 0.00 | 0.76 | 0.76 | 83 | 1012.7 |
| 20260509024959 | 10 | 271 | 0.0 | 0.0 | 0.00 | 0.76 | 0.76 | 82 | 1012.7 |
| 20260509024437 | 11 | 271 | 0.0 | 0.0 | 0.00 | 0.76 | 0.76 | 82 | 1012.5 |
| 20260509023938 | 11 | 257 | 0.0 | 0.0 | 0.00 | 0.76 | 0.76 | 82 | 1012.5 |
| 20260509023423 | 11 | 246 | 0.0 | 0.0 | 0.00 | 0.76 | 0.76 | 82 | 1012.3 |
| 20260509022913 | 11 | 230 | 0.0 | 0.0 | 0.00 | 0.76 | 0.76 | 81 | 1012.3 |
| 20260509022411 | 11 | 212 | 0.0 | 0.0 | 0.00 | 0.76 | 0.76 | 80 | 1011.9 |
| 20260509021913 | 11 | 212 | 0.0 | 0.0 | 0.00 | 0.76 | 0.76 | 79 | 1011.7 |
| 20260509021409 | 12 | 242 | 0.0 | 0.0 | 0.00 | 0.79 | 0.76 | 78 | 1011.8 |
| 20260509020843 | 12 | 242 | 0.0 | 0.0 | 0.00 | 0.81 | 0.76 | 78 | 1011.8 |
| 20260509020339 | 12 | 242 | 0.0 | 0.0 | 0.00 | 0.84 | 0.76 | 78 | 1011.7 |
| 20260509015836 | 12 | 242 | 0.0 | 0.0 | 0.00 | 0.94 | 0.76 | 77 | 1011.5 |
| 20260509015328 | 12 | 242 | 0.0 | 0.0 | 0.00 | 0.97 | 0.76 | 77 | 1011.7 |
| 20260509014823 | 12 | 242 | 0.0 | 0.0 | 0.00 | 0.97 | 0.76 | 77 | 1011.6 |
| 20260509014319 | 12 | 218 | 0.0 | 0.0 | 0.00 | 0.97 | 0.76 | 76 | 1011.5 |